WAT53 KMEM-KMKE

Flight info

Callsign WAT53
Flight time 1h 26m
Altitude 33000
Route JTEEE5 ODATE ENL JOT LEEDN GOPAC3
Aircraft A21N/M-SDE2E3FGHIRWXY/LB1

Departure

Time 2026-04-19 23:09
Airport Memphis International Airport (KMEM)

Arrival

Time 2026-04-20 00:35
Airport General Mitchell International Airport (KMKE)
Time Latitude Longitude Altitude Speed Heading
2026-04-19 22:45 35.04090 -89.98082 336 ft 0 kts 44°
2026-04-19 22:54 35.04082 -89.98091 334 ft 4 kts 41°
2026-04-19 22:54 35.04065 -89.98111 332 ft 4 kts 60°
2026-04-19 22:55 35.04063 -89.98136 332 ft 4 kts 119°
2026-04-19 22:55 35.04075 -89.98156 332 ft 1 kts 133°
2026-04-19 22:55 35.04077 -89.98159 332 ft 0 kts 133°
2026-04-19 23:00 35.04071 -89.98151 336 ft 4 kts 134°
2026-04-19 23:00 35.04043 -89.98115 333 ft 8 kts 134°
2026-04-19 23:01 35.03994 -89.98055 336 ft 12 kts 137°
2026-04-19 23:01 35.03981 -89.98042 336 ft 0 kts 141°
2026-04-19 23:02 35.03974 -89.98036 334 ft 0 kts 143°
2026-04-19 23:03 35.03923 -89.98037 334 ft 10 kts 185°
2026-04-19 23:03 35.03846 -89.98036 334 ft 12 kts 180°
2026-04-19 23:03 35.03794 -89.98110 335 ft 14 kts 265°
2026-04-19 23:03 35.03791 -89.98233 335 ft 15 kts 270°
2026-04-19 23:04 35.03790 -89.98365 336 ft 14 kts 269°
2026-04-19 23:04 35.03767 -89.98478 333 ft 15 kts 210°
2026-04-19 23:04 35.03661 -89.98485 333 ft 16 kts 178°
2026-04-19 23:04 35.03544 -89.98480 334 ft 18 kts 178°
2026-04-19 23:05 35.03438 -89.98478 333 ft 14 kts 179°
2026-04-19 23:05 35.03332 -89.98475 335 ft 16 kts 179°
2026-04-19 23:05 35.03216 -89.98474 331 ft 17 kts 179°
2026-04-19 23:05 35.03091 -89.98471 333 ft 19 kts 179°
2026-04-19 23:06 35.02965 -89.98466 333 ft 19 kts 178°
2026-04-19 23:06 35.02843 -89.98465 334 ft 18 kts 179°
2026-04-19 23:06 35.02717 -89.98462 333 ft 19 kts 178°
2026-04-19 23:06 35.02580 -89.98459 332 ft 20 kts 179°
2026-04-19 23:07 35.02469 -89.98456 336 ft 9 kts 179°
2026-04-19 23:07 35.02414 -89.98477 333 ft 6 kts 234°
2026-04-19 23:07 35.02406 -89.98535 336 ft 8 kts 268°
2026-04-19 23:07 35.02405 -89.98606 336 ft 9 kts 269°
2026-04-19 23:08 35.02421 -89.98684 335 ft 10 kts 335°
2026-04-19 23:08 35.02449 -89.98690 332 ft 5 kts 359°
2026-04-19 23:08 35.02690 -89.98696 331 ft 74 kts 358°
2026-04-19 23:08 35.03433 -89.98712 337 ft 137 kts 359°
2026-04-19 23:09 35.04482 -89.98719 661 ft 152 kts
2026-04-19 23:09 35.05560 -89.98827 1157 ft 158 kts 350°
2026-04-19 23:09 35.06675 -89.98998 1690 ft 168 kts 354°
2026-04-19 23:09 35.07893 -89.99095 2134 ft 182 kts 354°
2026-04-19 23:10 35.09215 -89.99200 2622 ft 199 kts 355°
2026-04-19 23:10 35.10653 -89.99317 3160 ft 217 kts 354°
2026-04-19 23:10 35.12246 -89.99448 3583 ft 241 kts 354°
2026-04-19 23:10 35.13967 -89.99590 4234 ft 253 kts 354°
2026-04-19 23:11 35.15733 -89.99861 5102 ft 257 kts 350°
2026-04-19 23:11 35.17502 -90.00207 6052 ft 257 kts 349°
2026-04-19 23:11 35.19233 -90.00552 7066 ft 253 kts 350°
2026-04-19 23:11 35.20970 -90.00898 7999 ft 253 kts 349°
2026-04-19 23:12 35.22731 -90.01183 8792 ft 258 kts 353°
2026-04-19 23:12 35.24548 -90.01312 9548 ft 264 kts 354°
2026-04-19 23:12 35.26402 -90.01426 10266 ft 272 kts 353°
2026-04-19 23:12 35.28357 -90.01544 10619 ft 290 kts 353°
2026-04-19 23:13 35.30429 -90.01669 11036 ft 304 kts 353°
2026-04-19 23:13 35.32564 -90.01797 11687 ft 310 kts 353°
2026-04-19 23:13 35.34730 -90.01924 12422 ft 313 kts 352°
2026-04-19 23:13 35.36917 -90.02055 13172 ft 316 kts 352°
2026-04-19 23:14 35.39124 -90.02189 13924 ft 320 kts 351°
2026-04-19 23:14 35.41359 -90.02325 14608 ft 323 kts 351°
2026-04-19 23:14 35.43617 -90.02462 15275 ft 326 kts 351°
2026-04-19 23:14 35.45895 -90.02600 15932 ft 330 kts 351°
2026-04-19 23:15 35.48211 -90.02743 16589 ft 334 kts 351°
2026-04-19 23:15 35.50542 -90.02884 17275 ft 337 kts 351°
2026-04-19 23:15 35.52892 -90.03025 17966 ft 339 kts 350°
2026-04-19 23:15 35.55262 -90.03168 18625 ft 342 kts 350°
2026-04-19 23:16 35.57654 -90.03310 19184 ft 346 kts 350°
2026-04-19 23:16 35.60069 -90.03456 19734 ft 349 kts 350°
2026-04-19 23:16 35.62503 -90.03604 20259 ft 352 kts 349°
2026-04-19 23:16 35.64931 -90.03790 20801 ft 355 kts 349°
2026-04-19 23:17 35.67437 -90.03993 21346 ft 358 kts 348°
2026-04-19 23:17 35.69900 -90.04204 21865 ft 361 kts 348°
2026-04-19 23:17 35.72419 -90.04425 22382 ft 365 kts 348°
2026-04-19 23:17 35.74961 -90.04648 22908 ft 368 kts 348°
2026-04-19 23:18 35.77537 -90.04802 23441 ft 376 kts 353°
2026-04-19 23:18 35.80174 -90.04327 23919 ft 390 kts
2026-04-19 23:18 35.82819 -90.03469 24334 ft 395 kts
2026-04-19 23:18 35.85476 -90.02553 24752 ft 398 kts
2026-04-19 23:19 35.88153 -90.01645 25155 ft 400 kts
2026-04-19 23:19 35.90847 -90.00752 25560 ft 402 kts
2026-04-19 23:19 35.93563 -89.99866 25961 ft 405 kts
2026-04-19 23:19 35.96298 -89.98968 26365 ft 407 kts
2026-04-19 23:20 35.99045 -89.98067 26759 ft 410 kts
2026-04-19 23:20 36.01809 -89.97164 27145 ft 412 kts
2026-04-19 23:20 36.04588 -89.96254 27518 ft 415 kts
2026-04-19 23:20 36.07391 -89.95334 27885 ft 417 kts
2026-04-19 23:21 36.10205 -89.94411 28241 ft 420 kts
2026-04-19 23:21 36.13035 -89.93482 28595 ft 422 kts
2026-04-19 23:21 36.15885 -89.92541 28942 ft 425 kts
2026-04-19 23:21 36.18712 -89.91614 29271 ft 427 kts
2026-04-19 23:22 36.21575 -89.90678 29596 ft 429 kts
2026-04-19 23:22 36.24470 -89.89729 29922 ft 431 kts
2026-04-19 23:22 36.27377 -89.88773 30285 ft 433 kts
2026-04-19 23:22 36.30299 -89.87812 30563 ft 435 kts
2026-04-19 23:23 36.33232 -89.86847 30805 ft 437 kts
2026-04-19 23:23 36.36179 -89.85874 31058 ft 439 kts
2026-04-19 23:23 36.39139 -89.84892 31322 ft 440 kts
2026-04-19 23:23 36.42097 -89.83907 31649 ft 440 kts
2026-04-19 23:24 36.45048 -89.82927 31963 ft 439 kts
2026-04-19 23:24 36.48003 -89.81951 32246 ft 439 kts
2026-04-19 23:24 36.50960 -89.80972 32585 ft 439 kts
2026-04-19 23:24 36.53907 -89.79992 32927 ft 437 kts
2026-04-19 23:25 36.56845 -89.79015 33221 ft 437 kts
2026-04-19 23:25 36.59790 -89.78035 33314 ft 438 kts
2026-04-19 23:25 36.65674 -89.76081 33292 ft 437 kts
2026-04-19 23:26 36.71514 -89.74134 33277 ft 437 kts
2026-04-19 23:26 36.77388 -89.72172 33298 ft 436 kts
2026-04-19 23:27 36.83251 -89.70211 33277 ft 435 kts
2026-04-19 23:27 36.89110 -89.68253 33270 ft 435 kts
2026-04-19 23:28 36.94962 -89.66292 33270 ft 435 kts
2026-04-19 23:28 37.00815 -89.64322 33289 ft 435 kts
2026-04-19 23:29 37.06656 -89.62359 33267 ft 434 kts
2026-04-19 23:29 37.12494 -89.60392 33263 ft 434 kts
2026-04-19 23:30 37.18329 -89.58424 33259 ft 434 kts
2026-04-19 23:30 37.24127 -89.56464 33300 ft 434 kts
2026-04-19 23:31 37.29008 -89.54809 33275 ft 433 kts
2026-04-19 23:31 37.35772 -89.52511 33265 ft 433 kts
2026-04-19 23:32 37.40652 -89.50856 33261 ft 433 kts
2026-04-19 23:32 37.46474 -89.48874 33261 ft 433 kts
2026-04-19 23:33 37.52286 -89.46892 33272 ft 432 kts
2026-04-19 23:33 37.58085 -89.44914 33260 ft 432 kts
2026-04-19 23:34 37.63850 -89.42946 33260 ft 432 kts
2026-04-19 23:34 37.69658 -89.40957 33260 ft 432 kts
2026-04-19 23:35 37.75453 -89.38967 33283 ft 429 kts
2026-04-19 23:35 37.81212 -89.36991 33264 ft 429 kts
2026-04-19 23:36 37.86968 -89.35012 33257 ft 429 kts
2026-04-19 23:36 37.92692 -89.33040 33261 ft 429 kts
2026-04-19 23:37 37.98445 -89.31055 33281 ft 427 kts
2026-04-19 23:37 38.04178 -89.29071 33266 ft 426 kts
2026-04-19 23:38 38.09895 -89.27092 33262 ft 426 kts
2026-04-19 23:38 38.15612 -89.25108 33261 ft 426 kts
2026-04-19 23:39 38.21318 -89.23124 33318 ft 423 kts
2026-04-19 23:39 38.26999 -89.21148 33272 ft 424 kts
2026-04-19 23:40 38.32701 -89.19163 33263 ft 425 kts
2026-04-19 23:40 38.38367 -89.17185 33255 ft 425 kts
2026-04-19 23:41 38.44072 -89.15373 33249 ft 419 kts
2026-04-19 23:41 38.49777 -89.13906 33251 ft 418 kts
2026-04-19 23:42 38.55480 -89.12442 33250 ft 418 kts
2026-04-19 23:42 38.61185 -89.10972 33250 ft 418 kts
2026-04-19 23:43 38.66884 -89.09499 33280 ft 417 kts
2026-04-19 23:43 38.72539 -89.08036 33262 ft 414 kts
2026-04-19 23:44 38.78154 -89.06584 33253 ft 414 kts
2026-04-19 23:44 38.83809 -89.05116 33254 ft 414 kts
2026-04-19 23:45 38.89464 -89.03646 33307 ft 414 kts
2026-04-19 23:45 38.95059 -89.02184 33263 ft 409 kts
2026-04-19 23:46 39.00630 -89.00735 33253 ft 409 kts
2026-04-19 23:46 39.06208 -88.99280 33252 ft 409 kts
2026-04-19 23:47 39.11780 -88.97814 33255 ft 409 kts
2026-04-19 23:47 39.17345 -88.96361 33257 ft 407 kts
2026-04-19 23:48 39.22890 -88.94903 33250 ft 406 kts
2026-04-19 23:48 39.28431 -88.93446 33250 ft 407 kts
2026-04-19 23:49 39.33943 -88.91992 33253 ft 407 kts
2026-04-19 23:49 39.39471 -88.90531 33270 ft 404 kts
2026-04-19 23:50 39.44981 -88.89081 33254 ft 404 kts
2026-04-19 23:50 39.50491 -88.87626 33253 ft 404 kts
2026-04-19 23:51 39.55993 -88.86167 33249 ft 404 kts
2026-04-19 23:51 39.61490 -88.84705 33277 ft 401 kts
2026-04-19 23:52 39.66051 -88.83491 33254 ft 403 kts
2026-04-19 23:52 39.72493 -88.81776 33238 ft 404 kts
2026-04-19 23:53 39.77963 -88.80319 33238 ft 404 kts
2026-04-19 23:53 39.83464 -88.78837 33259 ft 402 kts
2026-04-19 23:54 39.88944 -88.77366 33243 ft 402 kts
2026-04-19 23:54 39.94423 -88.75904 33243 ft 402 kts
2026-04-19 23:55 39.99900 -88.74436 33242 ft 402 kts
2026-04-19 23:55 40.05378 -88.72968 33279 ft 402 kts
2026-04-19 23:56 40.10849 -88.71493 33249 ft 401 kts
2026-04-19 23:56 40.16320 -88.70017 33244 ft 401 kts
2026-04-19 23:57 40.21794 -88.68534 33245 ft 401 kts
2026-04-19 23:57 40.27258 -88.67054 33260 ft 401 kts
2026-04-19 23:58 40.32724 -88.65575 33248 ft 401 kts
2026-04-19 23:58 40.38187 -88.64092 33246 ft 401 kts
2026-04-19 23:59 40.43652 -88.62606 33237 ft 401 kts
2026-04-19 23:59 40.49024 -88.61127 33157 ft 382 kts 360°
2026-04-20 00:00 40.51561 -88.60424 32837 ft 371 kts 359°
2026-04-20 00:00 40.54072 -88.59740 32469 ft 367 kts 359°
2026-04-20 00:00 40.56564 -88.59065 32179 ft 364 kts 358°
2026-04-20 00:00 40.59036 -88.58394 31919 ft 362 kts 358°
2026-04-20 00:01 40.61495 -88.57725 31662 ft 360 kts 358°
2026-04-20 00:01 40.63937 -88.57058 31410 ft 358 kts 358°
2026-04-20 00:01 40.68779 -88.55729 30909 ft 354 kts 358°
2026-04-20 00:02 40.71183 -88.55069 30659 ft 351 kts 358°
2026-04-20 00:02 40.73570 -88.54413 30416 ft 350 kts 357°
2026-04-20 00:02 40.75946 -88.53759 30148 ft 347 kts 357°
2026-04-20 00:02 40.78304 -88.53112 29861 ft 345 kts 357°
2026-04-20 00:03 40.80652 -88.52465 29573 ft 344 kts 357°
2026-04-20 00:03 40.82990 -88.51821 29281 ft 342 kts 357°
2026-04-20 00:03 40.85315 -88.51179 29012 ft 340 kts 357°
2026-04-20 00:03 40.87624 -88.50543 28728 ft 339 kts 357°
2026-04-20 00:04 40.89926 -88.49909 28459 ft 337 kts 357°
2026-04-20 00:04 40.92217 -88.49277 28205 ft 335 kts 357°
2026-04-20 00:04 40.94489 -88.48650 27933 ft 333 kts 357°
2026-04-20 00:04 40.96754 -88.48023 27660 ft 332 kts 357°
2026-04-20 00:05 40.99008 -88.47398 27386 ft 330 kts 357°
2026-04-20 00:05 41.01255 -88.46774 27168 ft 329 kts 357°
2026-04-20 00:05 41.03494 -88.46153 26903 ft 328 kts 357°
2026-04-20 00:05 41.05698 -88.45542 26645 ft 327 kts 357°
2026-04-20 00:06 41.07917 -88.44927 26384 ft 325 kts 357°
2026-04-20 00:06 41.10129 -88.44310 26127 ft 324 kts 357°
2026-04-20 00:06 41.12329 -88.43699 25920 ft 322 kts 357°
2026-04-20 00:06 41.14518 -88.43091 25668 ft 320 kts 357°
2026-04-20 00:07 41.16694 -88.42484 25412 ft 319 kts 357°
2026-04-20 00:07 41.18858 -88.41881 25163 ft 317 kts 357°
2026-04-20 00:07 41.21013 -88.41281 24917 ft 316 kts 357°
2026-04-20 00:07 41.23159 -88.40682 24672 ft 314 kts 357°
2026-04-20 00:08 41.25298 -88.40083 24432 ft 313 kts 357°
2026-04-20 00:08 41.27427 -88.39489 24191 ft 312 kts 357°
2026-04-20 00:08 41.29546 -88.38897 23950 ft 311 kts 358°
2026-04-20 00:08 41.31660 -88.38304 23700 ft 309 kts 358°
2026-04-20 00:09 41.33760 -88.37716 23452 ft 308 kts 358°
2026-04-20 00:09 41.35848 -88.37131 23165 ft 305 kts 357°
2026-04-20 00:09 41.37917 -88.36551 22884 ft 303 kts 357°
2026-04-20 00:09 41.39954 -88.35980 22609 ft 303 kts 357°
2026-04-20 00:10 41.42011 -88.35404 22338 ft 301 kts 357°
2026-04-20 00:10 41.44053 -88.34830 22065 ft 299 kts 358°
2026-04-20 00:10 41.46090 -88.34258 21797 ft 298 kts 358°
2026-04-20 00:10 41.48111 -88.33690 21552 ft 298 kts 358°
2026-04-20 00:11 41.50145 -88.33117 21380 ft 297 kts 358°
2026-04-20 00:11 41.52164 -88.32549 21237 ft 296 kts 358°
2026-04-20 00:11 41.54180 -88.31999 21104 ft 293 kts 355°
2026-04-20 00:11 41.56165 -88.31788 21019 ft 281 kts 348°
2026-04-20 00:12 41.58105 -88.31765 20896 ft 278 kts 347°
2026-04-20 00:12 41.60041 -88.31757 20761 ft 278 kts 347°
2026-04-20 00:12 41.61972 -88.31743 20633 ft 277 kts 347°
2026-04-20 00:12 41.63897 -88.31725 20507 ft 277 kts 347°
2026-04-20 00:13 41.65823 -88.31703 20371 ft 276 kts 347°
2026-04-20 00:13 41.67748 -88.31682 20243 ft 276 kts 347°
2026-04-20 00:13 41.69667 -88.31660 20118 ft 276 kts 347°
2026-04-20 00:13 41.71580 -88.31653 19989 ft 273 kts 346°
2026-04-20 00:14 41.73471 -88.31750 19863 ft 271 kts 345°
2026-04-20 00:14 41.75326 -88.31874 19740 ft 270 kts 344°
2026-04-20 00:14 41.77208 -88.32001 19644 ft 270 kts 345°
2026-04-20 00:14 41.79082 -88.32120 19519 ft 269 kts 345°
2026-04-20 00:15 41.80954 -88.32239 19389 ft 269 kts 345°
2026-04-20 00:15 41.82823 -88.32355 19267 ft 269 kts 345°
2026-04-20 00:15 41.84685 -88.32472 19144 ft 268 kts 345°
2026-04-20 00:15 41.86549 -88.32591 19023 ft 268 kts 345°
2026-04-20 00:16 41.88407 -88.32712 18901 ft 267 kts 345°
2026-04-20 00:16 41.90268 -88.32829 18779 ft 267 kts 345°
2026-04-20 00:16 41.92122 -88.32946 18658 ft 267 kts 345°
2026-04-20 00:16 41.93975 -88.33061 18535 ft 266 kts 345°
2026-04-20 00:17 41.95828 -88.33178 18399 ft 266 kts 345°
2026-04-20 00:17 41.97677 -88.33294 18309 ft 266 kts 345°
2026-04-20 00:17 41.99535 -88.33412 18157 ft 267 kts 346°
2026-04-20 00:17 42.00768 -88.33490 18079 ft 268 kts 346°
2026-04-20 00:18 42.03236 -88.33645 17893 ft 268 kts 346°
2026-04-20 00:18 42.05099 -88.33760 17755 ft 268 kts 346°
2026-04-20 00:18 42.06957 -88.33879 17619 ft 268 kts 346°
2026-04-20 00:18 42.08817 -88.33997 17483 ft 268 kts 347°
2026-04-20 00:19 42.10075 -88.34076 17389 ft 268 kts 347°
2026-04-20 00:19 42.11935 -88.34194 17256 ft 268 kts 347°
2026-04-20 00:19 42.13777 -88.34309 17122 ft 268 kts 347°
2026-04-20 00:19 42.15640 -88.34428 16988 ft 268 kts 347°
2026-04-20 00:20 42.17503 -88.34547 16854 ft 268 kts 347°
2026-04-20 00:20 42.19369 -88.34667 16712 ft 269 kts 348°
2026-04-20 00:20 42.21241 -88.34785 16472 ft 270 kts 348°
2026-04-20 00:20 42.23118 -88.34904 16204 ft 270 kts 348°
2026-04-20 00:21 42.24989 -88.35052 15925 ft 267 kts 347°
2026-04-20 00:21 42.26836 -88.35261 15605 ft 266 kts 347°
2026-04-20 00:21 42.28682 -88.35481 15264 ft 266 kts 347°
2026-04-20 00:21 42.30522 -88.35700 14912 ft 266 kts 347°
2026-04-20 00:22 42.32374 -88.35921 14553 ft 267 kts 347°
2026-04-20 00:22 42.34209 -88.36140 14195 ft 269 kts 348°
2026-04-20 00:22 42.36076 -88.36379 13801 ft 269 kts 347°
2026-04-20 00:22 42.37936 -88.36694 13404 ft 270 kts 346°
2026-04-20 00:23 42.39791 -88.37019 13086 ft 267 kts 346°
2026-04-20 00:23 42.41636 -88.37344 12921 ft 265 kts 347°
2026-04-20 00:23 42.43453 -88.37660 12493 ft 262 kts 347°
2026-04-20 00:23 42.45250 -88.37971 12041 ft 260 kts 347°
2026-04-20 00:24 42.47051 -88.38285 11621 ft 262 kts 348°
2026-04-20 00:24 42.48866 -88.38600 11217 ft 263 kts 348°
2026-04-20 00:24 42.50690 -88.38916 10832 ft 265 kts 348°
2026-04-20 00:24 42.52522 -88.39228 10458 ft 266 kts 351°
2026-04-20 00:25 42.54370 -88.38937 10021 ft 273 kts 15°
2026-04-20 00:25 42.56065 -88.37817 9533 ft 275 kts 25°
2026-04-20 00:25 42.57714 -88.36505 9056 ft 274 kts 26°
2026-04-20 00:25 42.59343 -88.35182 8592 ft 272 kts 27°
2026-04-20 00:26 42.60858 -88.33638 8149 ft 272 kts 35°
2026-04-20 00:26 42.62300 -88.31982 7703 ft 271 kts 36°
2026-04-20 00:26 42.63725 -88.30325 7261 ft 268 kts 36°
2026-04-20 00:26 42.65135 -88.28692 6665 ft 265 kts 36°
2026-04-20 00:27 42.66535 -88.27073 6022 ft 264 kts 36°
2026-04-20 00:27 42.67919 -88.25465 5555 ft 259 kts 36°
2026-04-20 00:27 42.69279 -88.23875 5075 ft 258 kts 40°
2026-04-20 00:27 42.70258 -88.21844 4598 ft 265 kts 66°
2026-04-20 00:28 42.70761 -88.19428 4175 ft 265 kts 70°
2026-04-20 00:28 42.71402 -88.17108 3913 ft 258 kts 62°
2026-04-20 00:28 42.72151 -88.14940 3717 ft 247 kts 60°
2026-04-20 00:28 42.72869 -88.12880 3566 ft 235 kts 60°
2026-04-20 00:29 42.73556 -88.10913 3353 ft 227 kts 60°
2026-04-20 00:29 42.74234 -88.08967 2927 ft 229 kts 60°
2026-04-20 00:29 42.74915 -88.07013 2649 ft 227 kts 60°
2026-04-20 00:29 42.75582 -88.05107 2604 ft 215 kts 60°
2026-04-20 00:30 42.76204 -88.03293 2606 ft 212 kts 60°
2026-04-20 00:30 42.76882 -88.01518 2619 ft 208 kts 50°
2026-04-20 00:30 42.77774 -87.99981 2632 ft 207 kts 45°
2026-04-20 00:30 42.78708 -87.98463 2681 ft 213 kts 45°
2026-04-20 00:31 42.79614 -87.97003 2697 ft 191 kts 45°
2026-04-20 00:31 42.80421 -87.95681 2643 ft 172 kts 45°
2026-04-20 00:31 42.81126 -87.94508 2650 ft 145 kts 45°
2026-04-20 00:31 42.81761 -87.93561 2487 ft 132 kts 38°
2026-04-20 00:32 42.82454 -87.92794 2363 ft 128 kts 28°
2026-04-20 00:32 42.83245 -87.92230 2257 ft 128 kts 20°
2026-04-20 00:32 42.84066 -87.91746 2225 ft 129 kts 18°
2026-04-20 00:32 42.84910 -87.91352 2148 ft 127 kts 12°
2026-04-20 00:33 42.85766 -87.91087 1990 ft 126 kts
2026-04-20 00:33 42.86629 -87.90899 1874 ft 126 kts
2026-04-20 00:33 42.87500 -87.90730 1819 ft 126 kts
2026-04-20 00:33 42.88364 -87.90594 1676 ft 124 kts
2026-04-20 00:34 42.89227 -87.90440 1479 ft 126 kts
2026-04-20 00:34 42.90111 -87.90271 1294 ft 130 kts
2026-04-20 00:34 42.91023 -87.90117 1134 ft 134 kts
2026-04-20 00:34 42.91953 -87.89961 960 ft 136 kts 10°
2026-04-20 00:35 42.92895 -87.89796 803 ft 137 kts 10°
2026-04-20 00:35 42.93801 -87.89641 695 ft 119 kts 10°
2026-04-20 00:35 42.94403 -87.89532 690 ft 58 kts
2026-04-20 00:35 42.94606 -87.89503 690 ft 10 kts
2026-04-20 00:36 42.94730 -87.89511 689 ft 21 kts 336°
2026-04-20 00:36 42.94812 -87.89599 687 ft 13 kts 231°
2026-04-20 00:36 42.94761 -87.89650 690 ft 5 kts 249°
2026-04-20 00:36 42.94749 -87.89709 693 ft 8 kts 227°
2026-04-20 00:37 42.94733 -87.89784 688 ft 10 kts 279°
2026-04-20 00:37 42.94737 -87.89821 691 ft 0 kts 277°